Regional Weather Roundup
Issued by NWS Newport/Morehead, NC

Current Version | Previous Version | Text Only | Print | Product List | Glossary Off
Versions: 1 2 3 4 5 6 7 8 9 10 11 12 13 14 15 16 17 18 19 20 21 22 23 24 25 26 27 28 29 30 31 32 33 34 35 36 37 38 39 40 41 42 43 44 45 46 47 48 49 50
000 ASUS42 KMHX 290825 RWRMHX WEATHER ROUNDUP FOR EASTERN NORTH CAROLINA NATIONAL WEATHER SERVICE NEWPORT/MOREHEAD CITY NC 400 AM EDT FRI APR 29 2016 NOTE: "FAIR" INDICATES FEW OR NO CLOUDS BELOW 12,000 FEET WITH NO SIGNIFICANT WEATHER AND/OR OBSTRUCTIONS TO VISIBILITY NCZ015>017-031-032-045>047-102-103-290900- NORTH COAST CITY SKY/WX TMP DP RH WIND PRES REMARKS EDENTON CLOUDY 59 59 100 CALM 29.93R ELIZABETH CITY PTCLDY 57 56 96 N12 29.91R KITTY HAWK MOSUNNY 57 57 100 E3 29.88 FOG MANTEO NOT AVBL $$ NCZ045>047-081-094-103-104-290900- CENTRAL COAST CITY SKY/WX TMP DP RH WIND PRES REMARKS FRISCO HVY RAIN 64 63 96 NE9 29.87F FOG SWANQUARTER NOT AVBL $$ NCZ095-097-098-100-101-290900- SOUTHERN COAST CITY SKY/WX TMP DP RH WIND PRES REMARKS BEAUFORT CLOUDY 69 67 93 W5 29.88S CEDAR ISLAND NOT AVBL JACKSONVILLE CLOUDY 67 63 87 CALM 29.88S PINEY ISLAND NOT AVBL WILMINGTON MOCLDY 69 66 90 NW6 29.89R $$ NCZ011>013-027>030-043-044-078>080-089-090>093-098-290900- COASTAL PLAIN CITY SKY/WX TMP DP RH WIND PRES REMARKS AHOSKIE CLOUDY 56 55 96 CALM 29.94F CLINTON PTCLDY 64 64 100 N3 29.90R ELIZABETHTOWN PTCLDY 67 65 94 CALM 29.88S GOLDSBORO CLOUDY 66 66 100 N5 29.88R GREENVILLE CLOUDY 61 61 100 N13 29.93S FOG HAVELOCK CLOUDY 69 66 90 W5 29.89S KENANSVILLE PTCLDY 65 65 97 CALM 29.89S FOG KINSTON CLOUDY 66 66 98 N5 29.89R NEW BERN LGT RAIN 67 65 93 CALM 29.89S RICHLANDS MOCLDY 66 64 94 CALM 29.89S ROCKY MOUNT CLOUDY 59 59 100 NE7 29.92F FOG WASHINGTON CLOUDY 64 63 97 N9 29.89F FOG WHITEVILLE MOCLDY 67 66 95 CALM 29.88R $$ AMZ130-135-150-152-154-156-158-170-250-252-270-ANZ085-086-088-633-658-670-290900- MARINE OBSERVATIONS STATION/POSITION TIME TEMP WIND PRES WAVE SWELL AIR SEA DIR/SP/G HT/PER HT/PER (UTC) (F) (DEG/KT/KT) (MB) (FT/S) (FT/S) CHESAPEAKE LIGHT 0800 53 30/ 18/ 19 1013.4 64 E VA BEACH 0750 55 54 90/ 8/ 10 1011.4 4/ 6 3/ 6 DUCK 0800 58 67 110/ 3/ 4 1011.5 2 E DUCK 0711 58 N/A 4/ 4 OREGON INLET 0800 58 68 10/ 9/ 11 1011.9 13E OREGON INLT 0800 59 N/A 4/ 6 3/ 5 HATTERAS CG 0800 65 70 10/ 16/ 19 1011.5 DIAMOND BUOY 0750 71 71 260/ 10/ 12 1011.3 3/ 5 2/ 6 CAPE LOOKOUT 0800 69 220/ 6/ 8 1011.2 BEAUFORT LAB 0800 69 67 250/ 3/ 5 1010.9 30 SE NEW RVR IN 0725 67 N/A 4/ 6 27 SE WRIGHTSVLE 0808 71 69 240/ 10/ 14 1014.6 5 SE WRIGHTSVLE 0808 69 67 310/ 10/ 19 1012.3 225 S CAPE HAT 0750 71 71 190/ 12/ 14 1014.7 2/11 2/11 41 SE CHARLESTON 0750 73 71 230/ 14/ 17 1012.6 3/ 5 2/11 $$

USA.gov is the U.S. government's official web portal to all federal, state and local government web resources and services.